Location: Kapla
(46.2483°N, 15.0094°E)
Time: 16:38:46
(UTC+00:00)

SeaSat 1 - Pass Details

Date: 03 March 2021
Orbit: 744 x 747 km, 108.0° (Epoch: 14 April)

Event Time Altitude Azimuth Distance (km) Brightness Sun altitude
Rises 17:55:16 0° 30° (NNE) 3,201 5.4 -12.2°
Reaches altitude 10° 17:57:34 10° 34° (NE) 2,273 4.7 -12.6°
Maximum altitude 18:02:28 61° 115° (ESE) 848 2.4 -13.5°
Drops below altitude 10° 18:07:20 10° 196° (SSW) 2,259 5.1 -14.3°
Sets 18:09:37 0° 200° (SSW) 3,179 5.9 -14.7°
